Back to Previous

Regional Weather Roundup

000
ASUS44 KLZK 311105
RWRLZK

WEATHER ROUNDUP FOR ARKANSAS
NATIONAL WEATHER SERVICE LITTLE ROCK AR
600 AM CDT SUN AUG 31 2014

NOTE: "FAIR" INDICATES FEW OR NO CLOUDS BELOW 12,000 FEET WITH NO
SIGNIFICANT WEATHER AND/OR OBSTRUCTIONS TO VISIBILITY.

ARZ001-003-010-029-311200-
NORTHWEST ARKANSAS
  
CITY           SKY/WX    TMP DP  RH WIND       PRES   REMARKS
FAYETTEVILLE   CLEAR     68  67  96 CALM      29.99R                  
FORT SMITH     CLEAR     72  70  93 NE5       29.96R                  
HARRISON       CLEAR     68  68 100 SE3       30.00R                  
BENTONVILLE      N/A     70  66  88 S5        29.99S VSB 1/2          
ROGERS         CLEAR     69  67  93 S6        30.00R                  
HIGHFILL       CLEAR     68  66  93 S5        29.98R                  
SPRINGDALE     CLEAR     70  68  94 S9        30.01                   
$$

ARZ004-005-016-311200-
NORTH CENTRAL ARKANSAS
  
CITY           SKY/WX    TMP DP  RH WIND       PRES   REMARKS
BATESVILLE     PTCLDY    72  70  94 CALM      29.99R                  
FLIPPIN          N/A     66  64  94 CALM      29.98R VSB 3/4          
MTN HOME       CLEAR     69  68  96 CALM      29.98R                  
$$

ARZ040-041-311200-
WEST CENTRAL ARKANSAS
  
CITY           SKY/WX    TMP DP  RH WIND       PRES   REMARKS
MENA           CLOUDY    75  73  94 CALM      30.01R                  
MOUNT IDA      CLOUDY    69  68  96 CALM      29.98R                  
$$

ARZ009-017-025-026-028-311200-
NORTHEAST ARKANSAS
  
CITY           SKY/WX    TMP DP  RH WIND       PRES   REMARKS
CORNING          N/A     73  73 100 CALM      29.99R                  
JONESBORO      CLOUDY    73  72  96 CALM      29.98R                  
NEWPORT        PTCLDY    74  73  96 SW10      29.99R                  
WALNUT RIDGE   CLEAR     72  68  88 CALM      29.98R                  
BLYTHEVILLE    CLOUDY    73  73 100 NW5       29.98R                  
$$

ARZ022-023-033-042-044-311200-
CENTRAL ARKANSAS
  
CITY           SKY/WX    TMP DP  RH WIND       PRES   REMARKS
LITTLE ROCK    CLOUDY    74  70  87 SW7       30.00R                  
N LITTLE ROCK    N/A     73  72  96 SW3       30.00R                  
JACKSONVILLE   CLOUDY    74  71  92 S2        30.00R                  
SEARCY         PTCLDY    73  73 100 SW3       30.00R                  
HOT SPRINGS    CLOUDY    73  71  93 CALM      30.00R                  
RUSSELLVILLE   CLEAR     72  70  93 CALM      29.98R                  
CLINTON        CLOUDY    72  72 100 CALM      30.00R                  
$$

ARZ036-311200-
EAST ARKANSAS
  
CITY           SKY/WX    TMP DP  RH WIND       PRES   REMARKS
WEST MEMPHIS   CLOUDY    74  74 100 SW6       29.98R FOG              
$$

ARZ050-053-066-070-073-311200-
SOUTHWEST ARKANSAS
  
CITY           SKY/WX    TMP DP  RH WIND       PRES   REMARKS
ARKADELPHIA    CLOUDY    75  75 100 CALM      30.00R                  
CAMDEN         CLOUDY    75  72  88 S3        30.00R FOG              
TEXARKANA      PTCLDY    75  74  96 S7        29.99R                  
EL DORADO      CLOUDY    73  73 100 S6        30.01R                  
DE QUEEN       CLOUDY    73  72  96 CALM      29.97R                  
$$

ARZ056-057-069-311200-
SOUTHEAST ARKANSAS
  
CITY           SKY/WX    TMP DP  RH WIND       PRES   REMARKS
PINE BLUFF     LGT RAIN  75  73  93 SW5       30.01R                  
STUTTGART      CLOUDY    73  70  88 SW6       30.01R                  
MONTICELLO     CLOUDY    75  73  93 S3        30.02R                  

$$




USA.gov is the U.S. government's official web portal to all federal, state and local government web resources and services.